Location: Unspecified
(0.0000°N, 0.0000°E)
Time: 14:10:16
(UTC+00:00)

deb Explorer IX - Pass Details

Date: 23 November 2019
Orbit: 545 x 1105 km, 38.8° (Epoch: 08 December)

Event Time Altitude Azimuth Distance (km) Brightness Sun altitude
Rises 07:57:24 0° 303° (WNW) 2,841 ? 30.5°
Reaches altitude 10° 07:59:50 10° 297° (WNW) 1,884 ? 31.1°
Maximum altitude 08:03:58 50° 222° (SW) 705 ? 32.0°
Drops below altitude 10° 08:07:55 10° 145° (SE) 1,803 ? 32.9°
Sets 08:10:12 0° 140° (SE) 2,705 ? 33.4°
